sat.trackr.live / text

‹ back to catalog

STARLINK-3243

NORAD 51116 · 2022-005N

PAYLOAD ACTIVE UNKNOWN

§ Identity

Operator
Country
US
Launch date
2022-01-19
Launch site
AFETR
Launch vehicle
Mass (kg)
RCS (m²)

Purposes: comms

External: N2YO · Heavens-Above · Gunter

§ Orbital elements

Epoch: 2026-09-20T03:37:39.883584Z

Period
94.01 min
Inclination
53.1590°
Eccentricity
0.0001261
Mean motion
15.31707311 rev/d
Perigee alt
469.9 km
Apogee alt
471.6 km
Semi-major
6,848.9 km
B*
1.0013e-5
RAAN
125.4156°
Arg perigee
91.7299°
Mean anomaly
268.3847°
Rev number
25,837

§ Raw data

STARLINK-32431 51116U 22005N   26263.15115606 -.00000054  00000+0  10013-4 0  99952 51116  53.1590 125.4156 0001261  91.7299 268.3847 15.31707311258372

JSON: /api/v1/satellites/51116 · /tle

For live sub-satellite position, see the globe view (requires WebGL).

§ Visibility from observer

Set your observer location to see the next 7 days of passes ≥ 10°. The values pass through the URL so the page stays shareable.

No JS? Fill the form by hand. The geolocation button needs JavaScript.